Fort Smith, AR

12:14 AM CDT on May 24, 2017 (GMT -0500)
Fort Smith Regional

Weather History for KFSM - September, 2012

Change the Weather History Date:

Sunday, September 2, 2012

  Actual Average Record
Temperature  
Mean Temperature 88 °F 79 °F  
Max Temperature 102 °F 91 °F 109 °F (2000)
Min Temperature 73 °F 68 °F 51 °F (1882)
Degree Days  
Heating Degree Days 0 0  
Month to date heating degree days 0 0  
Since 1 July heating degree days 0 0  
Cooling Degree Days 23 14  
Month to date cooling degree days 44 28  
Year to date cooling degree days 2460 1723  
Growing Degree Days 38 (Base 50)    
Moisture  
Dew Point 68 °F    
Average Humidity 59    
Maximum Humidity 87    
Minimum Humidity 31    
Precipitation  
Precipitation 0.00 in 0.12 in 2.70 in (1974)
Month to date precipitation 0.00 0.23  
Year to date precipitation 26.46 29.59  
Sea Level Pressure  
Sea Level Pressure 29.87 in    
Wind  
Wind Speed 5 mph (West)    
Max Wind Speed 16 mph    
Max Gust Speed 23 mph    
Visibility 10 miles    
Events      
T = Trace of Precipitation, MM = Missing Value Source: NWS Daily Summary

Daily Weather History Graph

Daily Weather History Graph

Search for Another Location

Airport or City:

Trip Planner

Search our weather history database for the weather conditions in past years. The results will help you decide how hot, cold, wet, or windy it might be!

Date:

Astronomy

Sep. 02, 2012 Rise Set
Actual Time 6:50 AM CDT 7:42 PM CDT
Civil Twilight 6:25 AM CDT 8:08 PM CDT
Nautical Twilight 5:54 AM CDT 8:38 PM CDT
Astronomical Twilight 5:22 AM CDT 9:10 PM CDT
Moon 8:38 PM CDT (9/2) 8:53 AM CDT (9/2)
Length of Visible Light 13h 43m
Length of Day
12h 51m
Waning Gibbous, 95% of the Moon is Illuminated
Sep 2
Waning Gibbous
Sep 8
Last Quarter
Sep 15
New
Sep 22
First Quarter
Sep 29
Full

Hourly Weather History & Observations

Time (CDT) Temp. Heat Index Dew Point Humidity Pressure Visibility Wind Dir Wind Speed Gust Speed Precip Events Conditions
12:53 AM 78.1 °F - 66.0 °F 66% 29.90 in 10.0 mi South 6.9 mph - N/A   Clear
1:53 AM 75.9 °F - 66.9 °F 74% 29.90 in 10.0 mi NW 3.5 mph - N/A   Clear
2:53 AM 75.9 °F - 66.9 °F 74% 29.89 in 10.0 mi Calm Calm - N/A   Clear
3:53 AM 75.0 °F - 68.0 °F 79% 29.89 in 10.0 mi Calm Calm - N/A   Clear
4:53 AM 75.0 °F - 68.0 °F 79% 29.89 in 10.0 mi North 3.5 mph - N/A   Clear
5:53 AM 75.9 °F - 68.0 °F 76% 29.90 in 10.0 mi Calm Calm - N/A   Clear
6:53 AM 73.0 °F - 69.1 °F 87% 29.91 in 10.0 mi Calm Calm - N/A   Clear
7:53 AM 75.9 °F - 70.0 °F 82% 29.92 in 10.0 mi Calm Calm - N/A   Clear
8:53 AM 81.0 °F 84.1 °F 69.1 °F 67% 29.93 in 10.0 mi Calm Calm - N/A   Clear
9:53 AM 86.0 °F 90.7 °F 70.0 °F 59% 29.93 in 10.0 mi West 9.2 mph - N/A   Clear
10:53 AM 89.1 °F 95.0 °F 71.1 °F 55% 29.93 in 10.0 mi West 6.9 mph - N/A   Clear
11:53 AM 93.0 °F 99.0 °F 70.0 °F 47% 29.91 in 10.0 mi West 10.4 mph - N/A   Clear
12:53 PM 96.1 °F 102.9 °F 70.0 °F 43% 29.89 in 10.0 mi West 11.5 mph - N/A   Clear
1:53 PM 99.0 °F 105.5 °F 69.1 °F 38% 29.87 in 10.0 mi WSW 11.5 mph - N/A   Clear
2:53 PM 99.0 °F 104.2 °F 68.0 °F 36% 29.85 in 10.0 mi West 10.4 mph - N/A   Clear
3:53 PM 100.9 °F 105.3 °F 66.0 °F 32% 29.83 in 10.0 mi WNW 10.4 mph - N/A   Clear
4:53 PM 102.0 °F 106.6 °F 66.0 °F 31% 29.81 in 10.0 mi WSW 12.7 mph - N/A   Clear
5:53 PM 100.9 °F 104.6 °F 64.9 °F 31% 29.81 in 10.0 mi West 10.4 mph - N/A   Clear
6:53 PM 98.1 °F 101.2 °F 64.9 °F 34% 29.81 in 10.0 mi WSW 8.1 mph - N/A   Clear
7:53 PM 93.0 °F 95.9 °F 66.0 °F 41% 29.81 in 10.0 mi SW 5.8 mph - N/A   Clear
8:53 PM 88.0 °F 92.1 °F 69.1 °F 53% 29.82 in 10.0 mi WSW 4.6 mph - N/A   Clear
9:53 PM 84.0 °F 87.8 °F 69.1 °F 61% 29.84 in 10.0 mi West 4.6 mph - N/A   Clear
10:53 PM 84.0 °F 87.8 °F 69.1 °F 61% 29.84 in 10.0 mi Calm Calm - N/A   Clear
11:53 PM 82.0 °F 85.9 °F 70.0 °F 67% 29.85 in 10.0 mi Calm Calm - N/A   Clear